Year,Month,Day,Hour,Minute,Value (Times are PST for temperature in C)
2016,06,29,00,00,18.00
2016,06,29,00,01,18.00
2016,06,29,00,02,18.00
2016,06,29,00,03,18.00
2016,06,29,00,04,17.90
2016,06,29,00,05,17.90
2016,06,29,00,06,17.90
2016,06,29,00,07,17.90
2016,06,29,00,08,17.90
2016,06,29,00,09,17.90
2016,06,29,00,10,17.90
2016,06,29,00,11,17.90
2016,06,29,00,12,17.90
2016,06,29,00,13,17.90
2016,06,29,00,14,17.90
2016,06,29,00,15,17.80
2016,06,29,00,16,17.80
2016,06,29,00,17,17.80
2016,06,29,00,18,17.80
2016,06,29,00,19,17.80
2016,06,29,00,20,17.80
2016,06,29,00,21,17.80
2016,06,29,00,22,17.70
2016,06,29,00,23,17.70
2016,06,29,00,24,17.70
2016,06,29,00,25,17.70
2016,06,29,00,26,17.70
2016,06,29,00,27,17.70
2016,06,29,00,28,17.60
2016,06,29,00,29,17.60
2016,06,29,00,30,17.60
2016,06,29,00,31,17.60
2016,06,29,00,32,17.60
2016,06,29,00,33,17.60
2016,06,29,00,34,17.60
2016,06,29,00,35,17.60
2016,06,29,00,36,17.60
2016,06,29,00,37,17.60
2016,06,29,00,38,17.60
2016,06,29,00,39,17.50
2016,06,29,00,40,17.50
2016,06,29,00,41,17.50
2016,06,29,00,42,17.50
2016,06,29,00,43,17.50
2016,06,29,00,44,17.40
2016,06,29,00,45,17.40
2016,06,29,00,46,17.40
2016,06,29,00,47,17.40
2016,06,29,00,48,17.40
2016,06,29,00,49,17.40
2016,06,29,00,50,17.40
2016,06,29,00,51,17.30
2016,06,29,00,52,17.30
2016,06,29,00,53,17.30
2016,06,29,00,54,17.30
2016,06,29,00,55,17.30
2016,06,29,00,56,17.30
2016,06,29,00,57,17.30
2016,06,29,00,58,17.20
2016,06,29,00,59,17.20
2016,06,29,01,00,17.20
2016,06,29,01,01,17.20
2016,06,29,01,02,17.10
2016,06,29,01,03,17.10
2016,06,29,01,04,17.10
2016,06,29,01,05,17.10
2016,06,29,01,06,17.00
2016,06,29,01,07,17.00
2016,06,29,01,08,17.00
2016,06,29,01,09,17.00
2016,06,29,01,10,16.90
2016,06,29,01,11,16.90
2016,06,29,01,12,16.90
2016,06,29,01,13,16.90
2016,06,29,01,14,16.90
2016,06,29,01,15,16.90
2016,06,29,01,16,16.90
2016,06,29,01,17,16.90
2016,06,29,01,18,16.90
2016,06,29,01,19,16.90
2016,06,29,01,20,16.80
2016,06,29,01,21,16.80
2016,06,29,01,22,16.80
2016,06,29,01,23,16.80
2016,06,29,01,24,16.80
2016,06,29,01,25,16.80
2016,06,29,01,26,16.80
2016,06,29,01,27,16.70
2016,06,29,01,28,16.70
2016,06,29,01,29,16.70
2016,06,29,01,30,16.70
2016,06,29,01,31,16.70
2016,06,29,01,32,16.70
2016,06,29,01,33,16.70
2016,06,29,01,34,16.70
2016,06,29,01,35,16.70
2016,06,29,01,36,16.70
2016,06,29,01,37,16.70
2016,06,29,01,38,16.70
2016,06,29,01,39,16.60
2016,06,29,01,40,16.60
2016,06,29,01,41,16.60
2016,06,29,01,42,16.60
2016,06,29,01,43,16.60
2016,06,29,01,44,16.60
2016,06,29,01,45,16.60
2016,06,29,01,46,16.50
2016,06,29,01,47,16.50
2016,06,29,01,48,16.50
2016,06,29,01,49,16.50
2016,06,29,01,50,16.50
2016,06,29,01,51,16.50
2016,06,29,01,52,16.50
2016,06,29,01,53,16.50
2016,06,29,01,54,16.50
2016,06,29,01,55,16.50
2016,06,29,01,56,16.50
2016,06,29,01,57,16.50
2016,06,29,01,58,16.50
2016,06,29,01,59,16.50
2016,06,29,02,00,16.50
2016,06,29,02,01,16.50
2016,06,29,02,02,16.50
2016,06,29,02,03,16.50
2016,06,29,02,04,16.50
2016,06,29,02,05,16.40
2016,06,29,02,06,16.40
2016,06,29,02,07,16.40
2016,06,29,02,08,16.40
2016,06,29,02,09,16.40
2016,06,29,02,10,16.40
2016,06,29,02,11,16.40
2016,06,29,02,12,16.40
2016,06,29,02,13,16.40
2016,06,29,02,14,16.40
2016,06,29,02,15,16.40
2016,06,29,02,16,16.30
2016,06,29,02,17,16.30
2016,06,29,02,18,16.30
2016,06,29,02,19,16.30
2016,06,29,02,20,16.30
2016,06,29,02,21,16.30
2016,06,29,02,22,16.30
2016,06,29,02,23,16.30
2016,06,29,02,24,16.30
2016,06,29,02,25,16.30
2016,06,29,02,26,16.30
2016,06,29,02,27,16.30
2016,06,29,02,28,16.20
2016,06,29,02,29,16.20
2016,06,29,02,30,16.20
2016,06,29,02,31,16.20
2016,06,29,02,32,16.20
2016,06,29,02,33,16.20
2016,06,29,02,34,16.20
2016,06,29,02,35,16.10
2016,06,29,02,36,16.10
2016,06,29,02,37,16.10
2016,06,29,02,38,16.10
2016,06,29,02,39,16.00
2016,06,29,02,40,16.00
2016,06,29,02,41,16.00
2016,06,29,02,42,15.90
2016,06,29,02,43,15.90
2016,06,29,02,44,15.90
2016,06,29,02,45,15.90
2016,06,29,02,46,15.80
2016,06,29,02,47,15.80
2016,06,29,02,48,15.80
2016,06,29,02,49,15.80
2016,06,29,02,50,15.80
2016,06,29,02,51,15.80
2016,06,29,02,52,15.70
2016,06,29,02,53,15.70
2016,06,29,02,54,15.70
2016,06,29,02,55,15.70
2016,06,29,02,56,15.70
2016,06,29,02,57,15.60
2016,06,29,02,58,15.60
2016,06,29,02,59,15.60
2016,06,29,03,00,15.60
2016,06,29,03,01,15.50
2016,06,29,03,02,15.50
2016,06,29,03,03,15.50
2016,06,29,03,04,15.50
2016,06,29,03,05,15.50
2016,06,29,03,06,15.40
2016,06,29,03,07,15.40
2016,06,29,03,08,15.40
2016,06,29,03,09,15.40
2016,06,29,03,10,15.40
2016,06,29,03,11,15.40
2016,06,29,03,12,15.40
2016,06,29,03,13,15.40
2016,06,29,03,14,15.30
2016,06,29,03,15,15.30
2016,06,29,03,16,15.30
2016,06,29,03,17,15.30
2016,06,29,03,18,15.30
2016,06,29,03,19,15.30
2016,06,29,03,20,15.30
2016,06,29,03,21,15.30
2016,06,29,03,22,15.30
2016,06,29,03,23,15.30
2016,06,29,03,24,15.30
2016,06,29,03,25,15.30
2016,06,29,03,26,15.30
2016,06,29,03,27,15.20
2016,06,29,03,28,15.20
2016,06,29,03,29,15.20
2016,06,29,03,30,15.20
2016,06,29,03,31,15.20
2016,06,29,03,32,15.20
2016,06,29,03,33,15.20
2016,06,29,03,34,15.20
2016,06,29,03,35,15.20
2016,06,29,03,36,15.20
2016,06,29,03,37,15.20
2016,06,29,03,38,15.20
2016,06,29,03,39,15.20
2016,06,29,03,40,15.20
2016,06,29,03,41,15.20
2016,06,29,03,42,15.20
2016,06,29,03,43,15.20
2016,06,29,03,44,15.20
2016,06,29,03,45,15.20
2016,06,29,03,46,15.20
2016,06,29,03,47,15.20
2016,06,29,03,48,15.20
2016,06,29,03,49,15.20
2016,06,29,03,50,15.20
2016,06,29,03,51,15.10
2016,06,29,03,52,15.10
2016,06,29,03,53,15.10
2016,06,29,03,54,15.10
2016,06,29,03,55,15.10
2016,06,29,03,56,15.10
2016,06,29,03,57,15.10
2016,06,29,03,58,15.10
2016,06,29,03,59,15.10
2016,06,29,04,00,15.10
2016,06,29,04,01,15.10
2016,06,29,04,02,15.10
2016,06,29,04,03,15.00
2016,06,29,04,04,15.00
2016,06,29,04,05,15.00
2016,06,29,04,06,15.00
2016,06,29,04,07,15.00
2016,06,29,04,08,14.90
2016,06,29,04,09,14.90
2016,06,29,04,10,14.90
2016,06,29,04,11,14.90
2016,06,29,04,12,14.90
2016,06,29,04,13,14.80
2016,06,29,04,14,14.80
2016,06,29,04,15,14.80
2016,06,29,04,16,14.80
2016,06,29,04,17,14.80
2016,06,29,04,18,14.80
2016,06,29,04,19,14.80
2016,06,29,04,20,14.80
2016,06,29,04,21,14.80
2016,06,29,04,22,14.80
2016,06,29,04,23,14.80
2016,06,29,04,24,14.80
2016,06,29,04,25,14.80
2016,06,29,04,26,14.80
2016,06,29,04,27,14.80
2016,06,29,04,28,14.80
2016,06,29,04,29,14.80
2016,06,29,04,30,14.80
2016,06,29,04,31,14.80
2016,06,29,04,32,14.80
2016,06,29,04,33,14.80
2016,06,29,04,34,14.80
2016,06,29,04,35,14.70
2016,06,29,04,36,14.70
2016,06,29,04,37,14.70
2016,06,29,04,38,14.70
2016,06,29,04,39,14.70
2016,06,29,04,40,14.70
2016,06,29,04,41,14.70
2016,06,29,04,42,14.70
2016,06,29,04,43,14.70
2016,06,29,04,44,14.70
2016,06,29,04,45,14.70
2016,06,29,04,46,14.60
2016,06,29,04,47,14.60
2016,06,29,04,48,14.60
2016,06,29,04,49,14.60
2016,06,29,04,50,14.60
2016,06,29,04,51,14.60
2016,06,29,04,52,14.60
2016,06,29,04,53,14.60
2016,06,29,04,54,14.60
2016,06,29,04,55,14.50
2016,06,29,04,56,14.60
2016,06,29,04,57,14.60
2016,06,29,04,58,14.60
2016,06,29,04,59,14.60
2016,06,29,05,00,14.60
2016,06,29,05,01,14.60
2016,06,29,05,02,14.60
2016,06,29,05,03,14.50
2016,06,29,05,04,14.50
2016,06,29,05,05,14.50
2016,06,29,05,06,14.50
2016,06,29,05,07,14.50
2016,06,29,05,08,14.50
2016,06,29,05,09,14.50
2016,06,29,05,10,14.50
2016,06,29,05,11,14.50
2016,06,29,05,12,14.50
2016,06,29,05,13,14.50
2016,06,29,05,14,14.50
2016,06,29,05,15,14.50
2016,06,29,05,16,14.50
2016,06,29,05,17,14.50
2016,06,29,05,18,14.50
2016,06,29,05,19,14.50
2016,06,29,05,20,14.50
2016,06,29,05,21,14.50
2016,06,29,05,22,14.50
2016,06,29,05,23,14.50
2016,06,29,05,24,14.50
2016,06,29,05,25,14.50
2016,06,29,05,26,14.50
2016,06,29,05,27,14.50
2016,06,29,05,28,14.50
2016,06,29,05,29,14.50
2016,06,29,05,30,14.50
2016,06,29,05,31,14.40
2016,06,29,05,32,14.50
2016,06,29,05,33,14.40
2016,06,29,05,34,14.50
2016,06,29,05,35,14.50
2016,06,29,05,36,14.50
2016,06,29,05,37,14.40
2016,06,29,05,38,14.40
2016,06,29,05,39,14.40
2016,06,29,05,40,14.40
2016,06,29,05,41,14.40
2016,06,29,05,42,14.40
2016,06,29,05,43,14.40
2016,06,29,05,44,14.40
2016,06,29,05,45,14.40
2016,06,29,05,46,14.40
2016,06,29,05,47,14.40
2016,06,29,05,48,14.40
2016,06,29,05,49,14.40
2016,06,29,05,50,14.40
2016,06,29,05,51,14.40
2016,06,29,05,52,14.40
2016,06,29,05,53,14.40
2016,06,29,05,54,14.40
2016,06,29,05,55,14.40
2016,06,29,05,56,14.40
2016,06,29,05,57,14.40
2016,06,29,05,58,14.40
2016,06,29,05,59,14.40
2016,06,29,06,00,14.40
2016,06,29,06,01,14.40
2016,06,29,06,02,14.40
2016,06,29,06,03,14.40
2016,06,29,06,04,14.40
2016,06,29,06,05,14.40
2016,06,29,06,06,14.40
2016,06,29,06,07,14.40
2016,06,29,06,08,14.40
2016,06,29,06,09,14.40
2016,06,29,06,10,14.40
2016,06,29,06,11,14.40
2016,06,29,06,12,14.40
2016,06,29,06,13,14.40
2016,06,29,06,14,14.40
2016,06,29,06,15,14.40
2016,06,29,06,16,14.40
2016,06,29,06,17,14.40
2016,06,29,06,18,14.40
2016,06,29,06,19,14.40
2016,06,29,06,20,14.40
2016,06,29,06,21,14.40
2016,06,29,06,22,14.40
2016,06,29,06,23,14.40
2016,06,29,06,24,14.40
2016,06,29,06,25,14.40
2016,06,29,06,26,14.40
2016,06,29,06,27,14.40
2016,06,29,06,28,14.40
2016,06,29,06,29,14.40
2016,06,29,06,30,14.40
2016,06,29,06,31,14.40
2016,06,29,06,32,14.40
2016,06,29,06,33,14.40
2016,06,29,06,34,14.40
2016,06,29,06,35,14.40
2016,06,29,06,36,14.40
2016,06,29,06,37,14.40
2016,06,29,06,38,14.40
2016,06,29,06,39,14.40
2016,06,29,06,40,14.40
2016,06,29,06,41,14.40
2016,06,29,06,42,14.50
2016,06,29,06,43,14.40
2016,06,29,06,44,14.50
2016,06,29,06,45,14.50
2016,06,29,06,46,14.50
2016,06,29,06,47,14.50
2016,06,29,06,48,14.60
2016,06,29,06,49,14.60
2016,06,29,06,50,14.60
2016,06,29,06,51,14.60
2016,06,29,06,52,14.60
2016,06,29,06,53,14.60
2016,06,29,06,54,14.60
2016,06,29,06,55,14.60
2016,06,29,06,56,14.60
2016,06,29,06,57,14.60
2016,06,29,06,58,14.60
2016,06,29,06,59,14.60
2016,06,29,07,00,14.60
2016,06,29,07,01,14.60
2016,06,29,07,02,14.50
2016,06,29,07,03,14.50
2016,06,29,07,04,14.50
2016,06,29,07,05,14.40
2016,06,29,07,06,14.40
2016,06,29,07,07,14.40
2016,06,29,07,08,14.40
2016,06,29,07,09,14.40
2016,06,29,07,10,14.40
2016,06,29,07,11,14.40
2016,06,29,07,12,14.40
2016,06,29,07,13,14.40
2016,06,29,07,14,14.50
2016,06,29,07,15,14.50
2016,06,29,07,16,14.50
2016,06,29,07,17,14.50
2016,06,29,07,18,14.60
2016,06,29,07,19,14.60
2016,06,29,07,20,14.60
2016,06,29,07,21,14.60
2016,06,29,07,22,14.70
2016,06,29,07,23,14.70
2016,06,29,07,24,14.70
2016,06,29,07,25,14.70
2016,06,29,07,26,14.70
2016,06,29,07,27,14.80
2016,06,29,07,28,14.80
2016,06,29,07,29,14.80
2016,06,29,07,30,14.80
2016,06,29,07,31,14.80
2016,06,29,07,32,14.80
2016,06,29,07,33,14.90
2016,06,29,07,34,14.90
2016,06,29,07,35,14.90
2016,06,29,07,36,14.90
2016,06,29,07,37,14.90
2016,06,29,07,38,14.90
2016,06,29,07,39,14.90
2016,06,29,07,40,15.00
2016,06,29,07,41,15.00
2016,06,29,07,42,15.00
2016,06,29,07,43,15.00
2016,06,29,07,44,15.00
2016,06,29,07,45,15.00
2016,06,29,07,46,15.00
2016,06,29,07,47,15.10
2016,06,29,07,48,15.10
2016,06,29,07,49,15.10
2016,06,29,07,50,15.10
2016,06,29,07,51,15.20
2016,06,29,07,52,15.20
2016,06,29,07,53,15.20
2016,06,29,07,54,15.30
2016,06,29,07,55,15.30
2016,06,29,07,56,15.30
2016,06,29,07,57,15.30
2016,06,29,07,58,15.30
2016,06,29,07,59,15.40
2016,06,29,08,00,15.40
2016,06,29,08,01,15.40
2016,06,29,08,02,15.40
2016,06,29,08,03,15.50
2016,06,29,08,04,15.50
2016,06,29,08,05,15.50
2016,06,29,08,06,15.60
2016,06,29,08,07,15.60
2016,06,29,08,08,15.60
2016,06,29,08,09,15.60
2016,06,29,08,10,15.60
2016,06,29,08,11,15.60
2016,06,29,08,12,15.60
2016,06,29,08,13,15.70
2016,06,29,08,14,15.70
2016,06,29,08,15,15.70
2016,06,29,08,16,15.80
2016,06,29,08,17,15.80
2016,06,29,08,18,15.80
2016,06,29,08,19,15.80
2016,06,29,08,20,15.80
2016,06,29,08,21,15.80
2016,06,29,08,22,15.90
2016,06,29,08,23,15.90
2016,06,29,08,24,15.90
2016,06,29,08,25,16.00
2016,06,29,08,26,16.00
2016,06,29,08,27,16.00
2016,06,29,08,28,16.10
2016,06,29,08,29,16.00
2016,06,29,08,30,16.10
2016,06,29,08,31,16.10
2016,06,29,08,32,16.20
2016,06,29,08,33,16.20
2016,06,29,08,34,16.20
2016,06,29,08,35,16.30
2016,06,29,08,36,16.30
2016,06,29,08,37,16.30
2016,06,29,08,38,16.30
2016,06,29,08,39,16.30
2016,06,29,08,40,16.30
2016,06,29,08,41,16.30
2016,06,29,08,42,16.40
2016,06,29,08,43,16.40
2016,06,29,08,44,16.40
2016,06,29,08,45,16.40
2016,06,29,08,46,16.50
2016,06,29,08,47,16.50
2016,06,29,08,48,16.60
2016,06,29,08,49,16.60
2016,06,29,08,50,16.60
2016,06,29,08,51,16.60
2016,06,29,08,52,16.70
2016,06,29,08,53,16.70
2016,06,29,08,54,16.70
2016,06,29,08,55,16.70
2016,06,29,08,56,16.80
2016,06,29,08,57,16.80
2016,06,29,08,58,16.80
2016,06,29,08,59,16.80
2016,06,29,09,00,16.80
2016,06,29,09,01,16.90
2016,06,29,09,02,16.90
2016,06,29,09,03,16.90
2016,06,29,09,04,17.00
2016,06,29,09,05,17.10
2016,06,29,09,06,17.10
2016,06,29,09,07,17.10
2016,06,29,09,08,17.20
2016,06,29,09,09,17.20
2016,06,29,09,10,17.20
2016,06,29,09,11,17.20
2016,06,29,09,12,17.20
2016,06,29,09,13,17.20
2016,06,29,09,14,17.20
2016,06,29,09,15,17.20
2016,06,29,09,16,17.30
2016,06,29,09,17,17.40
2016,06,29,09,18,17.40
2016,06,29,09,19,17.50
2016,06,29,09,20,17.60
2016,06,29,09,21,17.60
2016,06,29,09,22,17.60
2016,06,29,09,23,17.60
2016,06,29,09,24,17.70
2016,06,29,09,25,17.70
2016,06,29,09,26,17.80
2016,06,29,09,27,17.80
2016,06,29,09,28,17.80
2016,06,29,09,29,17.80
2016,06,29,09,30,17.80
2016,06,29,09,31,17.80
2016,06,29,09,32,17.80
2016,06,29,09,33,17.80
2016,06,29,09,34,17.80
2016,06,29,09,35,17.80
2016,06,29,09,36,17.90
2016,06,29,09,37,18.00
2016,06,29,09,38,18.10
2016,06,29,09,39,18.20
2016,06,29,09,40,18.30
2016,06,29,09,41,18.30
2016,06,29,09,42,18.40
2016,06,29,09,43,18.40
2016,06,29,09,44,18.40
2016,06,29,09,45,18.40
2016,06,29,09,46,18.40
2016,06,29,09,47,18.40
2016,06,29,09,48,18.40
2016,06,29,09,49,18.40
2016,06,29,09,50,18.40
2016,06,29,09,51,18.50
2016,06,29,09,52,18.50
2016,06,29,09,53,18.50
2016,06,29,09,54,18.50
2016,06,29,09,55,18.50
2016,06,29,09,56,18.50
2016,06,29,09,57,18.40
2016,06,29,09,58,18.40
2016,06,29,09,59,18.30
2016,06,29,10,00,18.30
2016,06,29,10,01,18.30
2016,06,29,10,02,18.30
2016,06,29,10,03,18.20
2016,06,29,10,04,18.20
2016,06,29,10,05,18.20
2016,06,29,10,06,18.20
2016,06,29,10,07,18.20
2016,06,29,10,08,18.30
2016,06,29,10,09,18.30
2016,06,29,10,10,18.30
2016,06,29,10,11,18.40
2016,06,29,10,12,18.30
2016,06,29,10,13,18.30
2016,06,29,10,14,18.30
2016,06,29,10,15,18.30
2016,06,29,10,16,18.30
2016,06,29,10,17,18.40
2016,06,29,10,18,18.40
2016,06,29,10,19,18.50
2016,06,29,10,20,18.50
2016,06,29,10,21,18.60
2016,06,29,10,22,18.60
2016,06,29,10,23,18.60
2016,06,29,10,24,18.60
2016,06,29,10,25,18.60
2016,06,29,10,26,18.60
2016,06,29,10,27,18.70
2016,06,29,10,28,18.70
2016,06,29,10,29,18.70
2016,06,29,10,30,18.80
2016,06,29,10,31,18.90
2016,06,29,10,32,18.90
2016,06,29,10,33,19.00
2016,06,29,10,34,19.00
2016,06,29,10,35,19.00
2016,06,29,10,36,19.10
2016,06,29,10,37,19.10
2016,06,29,10,38,19.20
2016,06,29,10,39,19.20
2016,06,29,10,40,19.20
2016,06,29,10,41,19.00
2016,06,29,10,42,18.90
2016,06,29,10,43,18.80
2016,06,29,10,44,18.80
2016,06,29,10,45,18.70
2016,06,29,10,46,18.60
2016,06,29,10,47,18.60
2016,06,29,10,48,18.60
2016,06,29,10,49,18.70
2016,06,29,10,50,18.80
2016,06,29,10,51,18.80
2016,06,29,10,52,18.90
2016,06,29,10,53,18.90
2016,06,29,10,54,18.90
2016,06,29,10,55,18.90
2016,06,29,10,56,18.90
2016,06,29,10,57,18.90
2016,06,29,10,58,18.90
2016,06,29,10,59,18.90
2016,06,29,11,00,18.90
2016,06,29,11,01,19.00
2016,06,29,11,02,19.10
2016,06,29,11,03,19.00
2016,06,29,11,04,19.00
2016,06,29,11,05,18.90
2016,06,29,11,06,18.90
2016,06,29,11,07,18.90
2016,06,29,11,08,18.90
2016,06,29,11,09,19.00
2016,06,29,11,10,19.10
2016,06,29,11,11,19.20
2016,06,29,11,12,19.20
2016,06,29,11,13,19.30
2016,06,29,11,14,19.40
2016,06,29,11,15,19.40
2016,06,29,11,16,19.50
2016,06,29,11,17,19.50
2016,06,29,11,18,19.60
2016,06,29,11,19,19.60
2016,06,29,11,20,19.70
2016,06,29,11,21,19.70
2016,06,29,11,22,19.80
2016,06,29,11,23,19.80
2016,06,29,11,24,19.90
2016,06,29,11,25,19.90
2016,06,29,11,26,20.00
2016,06,29,11,27,20.00
2016,06,29,11,28,20.10
2016,06,29,11,29,20.20
2016,06,29,11,30,20.20
2016,06,29,11,31,20.20
2016,06,29,11,32,20.20
2016,06,29,11,33,20.20
2016,06,29,11,34,20.20
2016,06,29,11,35,20.20
2016,06,29,11,36,20.20
2016,06,29,11,37,20.30
2016,06,29,11,38,20.30
2016,06,29,11,39,20.30
2016,06,29,11,40,20.40
2016,06,29,11,41,20.40
2016,06,29,11,42,20.40
2016,06,29,11,43,20.40
2016,06,29,11,44,20.30
2016,06,29,11,45,20.30
2016,06,29,11,46,20.30
2016,06,29,11,47,20.30
2016,06,29,11,48,20.40
2016,06,29,11,49,20.40
2016,06,29,11,50,20.50
2016,06,29,11,51,20.60
2016,06,29,11,52,20.70
2016,06,29,11,53,20.80
2016,06,29,11,54,20.80
2016,06,29,11,55,20.90
2016,06,29,11,56,20.90
2016,06,29,11,57,20.90
2016,06,29,11,58,20.90
2016,06,29,11,59,20.90
2016,06,29,12,00,20.90
2016,06,29,12,01,20.90
2016,06,29,12,02,20.90
2016,06,29,12,03,20.90
2016,06,29,12,04,20.90
2016,06,29,12,05,21.00
2016,06,29,12,06,21.00
2016,06,29,12,07,21.00
2016,06,29,12,08,21.10
2016,06,29,12,09,21.10
2016,06,29,12,10,21.10
2016,06,29,12,11,21.10
2016,06,29,12,12,21.10
2016,06,29,12,13,21.10
2016,06,29,12,14,21.10
2016,06,29,12,15,21.10
2016,06,29,12,16,21.10
2016,06,29,12,17,21.20
2016,06,29,12,18,21.20
2016,06,29,12,19,21.30
2016,06,29,12,20,21.30
2016,06,29,12,21,21.30
2016,06,29,12,22,21.40
2016,06,29,12,23,21.40
2016,06,29,12,24,21.50
2016,06,29,12,25,21.50
2016,06,29,12,26,21.60
2016,06,29,12,27,21.80
2016,06,29,12,28,21.90
2016,06,29,12,29,21.90
2016,06,29,12,30,22.00
2016,06,29,12,31,22.00
2016,06,29,12,32,22.00
2016,06,29,12,33,22.00
2016,06,29,12,34,21.90
2016,06,29,12,35,21.90
2016,06,29,12,36,21.80
2016,06,29,12,37,21.80
2016,06,29,12,38,21.80
2016,06,29,12,39,21.90
2016,06,29,12,40,22.00
2016,06,29,12,41,22.00
2016,06,29,12,42,22.10
2016,06,29,12,43,22.10
2016,06,29,12,44,22.10
2016,06,29,12,45,22.00
2016,06,29,12,46,22.00
2016,06,29,12,47,22.00
2016,06,29,12,48,22.00
2016,06,29,12,49,21.90
2016,06,29,12,50,21.90
2016,06,29,12,51,21.90
2016,06,29,12,52,21.90
2016,06,29,12,53,22.00
2016,06,29,12,54,22.00
2016,06,29,12,55,22.10
2016,06,29,12,56,22.00
2016,06,29,12,57,21.90
2016,06,29,12,58,21.90
2016,06,29,12,59,21.90
2016,06,29,13,00,21.90
2016,06,29,13,01,21.90
2016,06,29,13,02,21.90
2016,06,29,13,03,21.90
2016,06,29,13,04,22.00
2016,06,29,13,05,22.00
2016,06,29,13,06,22.00
2016,06,29,13,07,22.00
2016,06,29,13,08,22.00
2016,06,29,13,09,22.00
2016,06,29,13,10,21.90
2016,06,29,13,11,21.90
2016,06,29,13,12,22.00
2016,06,29,13,13,22.10
2016,06,29,13,14,22.20
2016,06,29,13,15,22.30
2016,06,29,13,16,22.40
2016,06,29,13,17,22.50
2016,06,29,13,18,22.60
2016,06,29,13,19,22.70
2016,06,29,13,20,22.70
2016,06,29,13,21,22.70
2016,06,29,13,22,22.70
2016,06,29,13,23,22.70
2016,06,29,13,24,22.70
2016,06,29,13,25,22.80
2016,06,29,13,26,22.70
2016,06,29,13,27,22.70
2016,06,29,13,28,22.60
2016,06,29,13,29,22.60
2016,06,29,13,30,22.60
2016,06,29,13,31,22.60
2016,06,29,13,32,22.60
2016,06,29,13,33,22.60
2016,06,29,13,34,22.60
2016,06,29,13,35,22.60
2016,06,29,13,36,22.60
2016,06,29,13,37,22.60
2016,06,29,13,38,22.60
2016,06,29,13,39,22.60
2016,06,29,13,40,22.60
2016,06,29,13,41,22.60
2016,06,29,13,42,22.60
2016,06,29,13,43,22.70
2016,06,29,13,44,22.70
2016,06,29,13,45,22.70
2016,06,29,13,46,22.70
2016,06,29,13,47,22.70
2016,06,29,13,48,22.70
2016,06,29,13,49,22.70
2016,06,29,13,50,22.70
2016,06,29,13,51,22.70
2016,06,29,13,52,22.70
2016,06,29,13,53,22.60
2016,06,29,13,54,22.70
2016,06,29,13,55,22.70
2016,06,29,13,56,22.70
2016,06,29,13,57,22.70
2016,06,29,13,58,22.70
2016,06,29,13,59,22.70
2016,06,29,14,00,22.80
2016,06,29,14,01,22.80
2016,06,29,14,02,22.90
2016,06,29,14,03,23.00
2016,06,29,14,04,23.00
2016,06,29,14,05,23.10
2016,06,29,14,06,23.10
2016,06,29,14,07,23.20
2016,06,29,14,08,23.30
2016,06,29,14,09,23.40
2016,06,29,14,10,23.50
2016,06,29,14,11,23.60
2016,06,29,14,12,23.70
2016,06,29,14,13,23.70
2016,06,29,14,14,23.70
2016,06,29,14,15,23.80
2016,06,29,14,16,23.80
2016,06,29,14,17,23.90
2016,06,29,14,18,24.00
2016,06,29,14,19,24.20
2016,06,29,14,20,24.30
2016,06,29,14,21,24.40
2016,06,29,14,22,24.50
2016,06,29,14,23,24.50
2016,06,29,14,24,24.60
2016,06,29,14,25,24.70
2016,06,29,14,26,24.60
2016,06,29,14,27,24.60
2016,06,29,14,28,24.60
2016,06,29,14,29,24.50
2016,06,29,14,30,24.50
2016,06,29,14,31,24.40
2016,06,29,14,32,24.40
2016,06,29,14,33,24.50
2016,06,29,14,34,24.60
2016,06,29,14,35,24.60
2016,06,29,14,36,24.70
2016,06,29,14,37,24.70
2016,06,29,14,38,24.60
2016,06,29,14,39,24.60
2016,06,29,14,40,24.50
2016,06,29,14,41,24.50
2016,06,29,14,42,24.50
2016,06,29,14,43,24.50
2016,06,29,14,44,24.60
2016,06,29,14,45,24.60
2016,06,29,14,46,24.70
2016,06,29,14,47,24.80
2016,06,29,14,48,24.90
2016,06,29,14,49,25.00
2016,06,29,14,50,25.10
2016,06,29,14,51,25.10
2016,06,29,14,52,25.00
2016,06,29,14,53,25.00
2016,06,29,14,54,24.90
2016,06,29,14,55,24.90
2016,06,29,14,56,24.90
2016,06,29,14,57,25.00
2016,06,29,14,58,25.00
2016,06,29,14,59,24.90
2016,06,29,15,00,25.00
2016,06,29,15,01,25.00
2016,06,29,15,02,25.00
2016,06,29,15,03,25.10
2016,06,29,15,04,25.20
2016,06,29,15,05,25.30
2016,06,29,15,06,25.40
2016,06,29,15,07,25.50
2016,06,29,15,08,25.60
2016,06,29,15,09,25.70
2016,06,29,15,10,25.70
2016,06,29,15,11,25.70
2016,06,29,15,12,25.70
2016,06,29,15,13,25.50
2016,06,29,15,14,25.50
2016,06,29,15,15,25.40
2016,06,29,15,16,25.40
2016,06,29,15,17,25.40
2016,06,29,15,18,25.30
2016,06,29,15,19,25.30
2016,06,29,15,20,25.30
2016,06,29,15,21,25.30
2016,06,29,15,22,25.40
2016,06,29,15,23,25.50
2016,06,29,15,24,25.50
2016,06,29,15,25,25.60
2016,06,29,15,26,25.60
2016,06,29,15,27,25.60
2016,06,29,15,28,25.70
2016,06,29,15,29,25.70
2016,06,29,15,30,25.60
2016,06,29,15,31,25.50
2016,06,29,15,32,25.50
2016,06,29,15,33,25.40
2016,06,29,15,34,25.40
2016,06,29,15,35,25.50
2016,06,29,15,36,25.50
2016,06,29,15,37,25.50
2016,06,29,15,38,25.50
2016,06,29,15,39,25.50
2016,06,29,15,40,25.60
2016,06,29,15,41,25.60
2016,06,29,15,42,25.70
2016,06,29,15,43,25.70
2016,06,29,15,44,25.80
2016,06,29,15,45,25.80
2016,06,29,15,46,25.90
2016,06,29,15,47,25.90
2016,06,29,15,48,26.00
2016,06,29,15,49,26.10
2016,06,29,15,50,26.20
2016,06,29,15,51,26.20
2016,06,29,15,52,26.20
2016,06,29,15,53,26.20
2016,06,29,15,54,26.10
2016,06,29,15,55,26.10
2016,06,29,15,56,26.10
2016,06,29,15,57,26.10
2016,06,29,15,58,26.00
2016,06,29,15,59,26.00
2016,06,29,16,00,26.00
2016,06,29,16,01,25.90
2016,06,29,16,02,25.90
2016,06,29,16,03,25.80
2016,06,29,16,04,25.80
2016,06,29,16,05,25.70
2016,06,29,16,06,25.70
2016,06,29,16,07,25.60
2016,06,29,16,08,25.50
2016,06,29,16,09,25.50
2016,06,29,16,10,25.50
2016,06,29,16,11,25.50
2016,06,29,16,12,25.50
2016,06,29,16,13,25.40
2016,06,29,16,14,25.40
2016,06,29,16,15,25.40
2016,06,29,16,16,25.50
2016,06,29,16,17,25.50
2016,06,29,16,18,25.60
2016,06,29,16,19,25.70
2016,06,29,16,20,25.70
2016,06,29,16,21,25.80
2016,06,29,16,22,25.90
2016,06,29,16,23,26.10
2016,06,29,16,24,26.10
2016,06,29,16,25,26.00
2016,06,29,16,26,26.00
2016,06,29,16,27,25.90
2016,06,29,16,28,25.80
2016,06,29,16,29,25.70
2016,06,29,16,30,25.60
2016,06,29,16,31,25.60
2016,06,29,16,32,25.60
2016,06,29,16,33,25.60
2016,06,29,16,34,25.60
2016,06,29,16,35,25.70
2016,06,29,16,36,25.80
2016,06,29,16,37,25.80
2016,06,29,16,38,25.90
2016,06,29,16,39,25.90
2016,06,29,16,40,25.90
2016,06,29,16,41,26.00
2016,06,29,16,42,26.10
2016,06,29,16,43,26.10
2016,06,29,16,44,26.10
2016,06,29,16,45,26.20
2016,06,29,16,46,26.20
2016,06,29,16,47,26.20
2016,06,29,16,48,26.20
2016,06,29,16,49,26.30
2016,06,29,16,50,26.30
2016,06,29,16,51,26.30
2016,06,29,16,52,26.30
2016,06,29,16,53,26.30
2016,06,29,16,54,26.30
2016,06,29,16,55,26.30
2016,06,29,16,56,26.30
2016,06,29,16,57,26.40
2016,06,29,16,58,26.50
2016,06,29,16,59,26.60
2016,06,29,17,00,26.60
2016,06,29,17,01,26.60
2016,06,29,17,02,26.60
2016,06,29,17,03,26.50
2016,06,29,17,04,26.40
2016,06,29,17,05,26.40
2016,06,29,17,06,26.40
2016,06,29,17,07,26.30
2016,06,29,17,08,26.30
2016,06,29,17,09,26.30
2016,06,29,17,10,26.40
2016,06,29,17,11,26.40
2016,06,29,17,12,26.50
2016,06,29,17,13,26.50
2016,06,29,17,14,26.50
2016,06,29,17,15,26.40
2016,06,29,17,16,26.40
2016,06,29,17,17,26.30
2016,06,29,17,18,26.30
2016,06,29,17,19,26.20